Weather History for Rockland, ME

Change the Weather History Date:

Sunday, January 22, 2012

  Actual Average Record
Temperature  
Mean Temperature 14 °F -  
Max Temperature 21 °F 25 °F 42 °F (1997)
Min Temperature 8 °F 11 °F -11 °F (2005)
Degree Days  
Heating Degree Days 50    
Moisture  
Dew Point 7 °F    
Average Humidity 72    
Maximum Humidity 100    
Minimum Humidity 54    
Precipitation  
Precipitation 0.00 in - - ()
Sea Level Pressure  
Sea Level Pressure 30.52 in    
Wind  
Wind Speed 4 mph (North)    
Max Wind Speed 10 mph    
Max Gust Speed 16 mph    
Visibility 10 miles    
Events      
Averages and records for this station are not official NWS values.
T = Trace of Precipitation, MM = Missing Value Source: NWS Daily Summary

Daily Weather History Graph

Daily Weather History Graph

Search for Another Location

Airport:

Trip Planner

Search our weather history database for the weather conditions in past years. The results will help you decide how hot, cold, wet, or windy it might be!

Date:

Astronomy

Jan. 22, 2012 Rise Set
Actual Time 7:03 AM EST 4:32 PM EST
Civil Twilight 6:32 AM EST 5:03 PM EST
Nautical Twilight 5:57 AM EST 5:39 PM EST
Astronomical Twilight 5:22 AM EST 6:13 PM EST
Moon 6:18 AM EST 4:11 PM EST
Length of Visible Light 10h 31m
Length of Day
9h 28m
Waning Crescent, 0% of the Moon is Illuminated
Jan 22
Waning Crescent
Jan 23
New
Jan 30
First Quarter
Feb 7
Full
Feb 14
Last Quarter

Hourly Weather History & Observations

Time (EST) Temp. Windchill Dew Point Humidity Pressure Visibility Wind Dir Wind Speed Gust Speed Precip Events Conditions
1:15 AM 8.6 °F 2.0 °F 3.2 °F 79% 30.36 in 10.0 mi NNW 3.5 mph - N/A   Clear
1:35 AM 8.6 °F 2.0 °F 1.4 °F 73% 30.37 in 10.0 mi NNW 3.5 mph - N/A   Clear
2:35 AM 10.4 °F 2.2 °F 1.4 °F 67% 30.40 in 10.0 mi NNW 4.6 mph - N/A   Clear
2:55 AM 12.2 °F 1.7 °F 3.2 °F 67% 30.41 in 10.0 mi North 6.9 mph - N/A   Clear
3:15 AM 12.2 °F 1.7 °F 1.4 °F 62% 30.41 in 10.0 mi North 6.9 mph - N/A   Clear
3:35 AM 12.2 °F 1.7 °F 3.2 °F 67% 30.42 in 10.0 mi North 6.9 mph - N/A   Clear
4:35 AM 12.2 °F 2.9 °F 3.2 °F 67% 30.44 in 10.0 mi North 5.8 mph - N/A   Clear
4:55 AM 12.2 °F 4.3 °F 1.4 °F 62% 30.46 in 10.0 mi North 4.6 mph - N/A   Clear
5:15 AM 12.2 °F 4.3 °F 3.2 °F 67% 30.46 in 10.0 mi North 4.6 mph - N/A   Clear
5:35 AM 12.2 °F 1.7 °F 3.2 °F 67% 30.47 in 10.0 mi North 6.9 mph - N/A   Clear
6:35 AM 10.4 °F 2.2 °F 3.2 °F 73% 30.50 in 10.0 mi NW 4.6 mph - N/A   Clear
6:55 AM 10.4 °F 2.2 °F 1.4 °F 67% 30.50 in 10.0 mi NNW 4.6 mph - N/A   Clear
7:15 AM 10.4 °F 2.2 °F 3.2 °F 73% 30.51 in 10.0 mi NNW 4.6 mph - N/A   Clear
7:35 AM 10.4 °F 4.0 °F 3.2 °F 73% 30.53 in 10.0 mi NNW 3.5 mph - N/A   Clear
8:35 AM 15.8 °F 10.2 °F 3.2 °F 58% 30.56 in 10.0 mi NE 3.5 mph - N/A   Clear
8:55 AM 15.8 °F 7.2 °F 6.8 °F 68% 30.57 in 10.0 mi NNE 5.8 mph - N/A   Clear
9:15 AM 17.6 °F 5.7 °F 6.8 °F 63% 30.57 in 10.0 mi NE 10.4 mph - N/A   Clear
9:35 AM 17.6 °F 8.2 °F 6.8 °F 63% 30.59 in 10.0 mi NE 6.9 mph 16.1 mph N/A   Clear
10:35 AM 19.4 °F 12.8 °F 8.6 °F 63% 30.58 in 10.0 mi North 4.6 mph - N/A   Clear
10:55 AM 19.4 °F 9.5 °F 8.6 °F 63% 30.58 in 10.0 mi NE 8.1 mph - N/A   Clear
11:15 AM 19.4 °F 9.5 °F 10.4 °F 68% 30.58 in 10.0 mi NNE 8.1 mph - N/A   Clear
12:15 PM 19.4 °F 10.4 °F 8.6 °F 63% 30.55 in 10.0 mi NNE 6.9 mph - N/A   Clear
12:35 PM 19.4 °F 10.4 °F 8.6 °F 63% 30.55 in 10.0 mi NE 6.9 mph - N/A   Clear
1:15 PM 21.2 °F 16.4 °F 6.8 °F 54% 30.55 in 10.0 mi ENE 3.5 mph - N/A   Clear
2:15 PM 19.4 °F - 6.8 °F 58% 30.55 in 10.0 mi Calm Calm - N/A   Clear
2:35 PM 21.2 °F 14.9 °F 6.8 °F 54% 30.56 in 10.0 mi NE 4.6 mph - N/A   Clear
2:55 PM 21.2 °F - 6.8 °F 54% 30.55 in 10.0 mi Calm Calm - N/A   Clear
3:15 PM 21.2 °F - 8.6 °F 58% 30.56 in 10.0 mi Calm Calm - N/A   Clear
4:15 PM 19.4 °F 12.8 °F 8.6 °F 63% 30.55 in 10.0 mi SSE 4.6 mph - N/A   Clear
4:35 PM 19.4 °F - 10.4 °F 68% 30.55 in 10.0 mi Calm Calm - N/A   Clear
4:55 PM 19.4 °F - 10.4 °F 68% 30.55 in 10.0 mi Calm Calm - N/A   Clear
5:15 PM 19.4 °F - 10.4 °F 68% 30.56 in 10.0 mi Calm Calm - N/A   Clear
6:15 PM 15.8 °F - 10.4 °F 79% 30.56 in 10.0 mi Calm Calm - N/A   Clear
6:35 PM 15.8 °F - 10.4 °F 79% 30.55 in 10.0 mi Calm Calm - N/A   Clear
6:55 PM 14.0 °F - 10.4 °F 86% 30.55 in 10.0 mi Calm Calm - N/A   Clear
7:55 PM 10.4 °F - 6.8 °F 85% 30.56 in 10.0 mi Calm Calm - N/A   Clear
8:15 PM 10.4 °F - 8.6 °F 92% 30.57 in 10.0 mi Calm Calm - N/A   Clear
8:35 PM 10.4 °F - 10.4 °F 100% 30.57 in 10.0 mi Calm Calm - N/A   Clear
8:55 PM 10.4 °F - 10.4 °F 100% 30.57 in 10.0 mi Calm Calm - N/A   Clear
9:55 PM 10.4 °F - 8.6 °F 92% 30.56 in 10.0 mi Calm Calm - N/A   Mostly Cloudy
10:15 PM 10.4 °F - 10.4 °F 100% 30.54 in 10.0 mi Calm Calm - N/A   Overcast
10:35 PM 12.2 °F - 10.4 °F 92% 30.54 in 10.0 mi Calm Calm - N/A   Overcast
10:55 PM 12.2 °F - 10.4 °F 92% 30.54 in 10.0 mi Calm Calm - N/A   Overcast
11:55 PM 17.6 °F - 15.8 °F 93% 30.52 in 10.0 mi Calm Calm - N/A   Overcast